C7607 Weather Reports


time (UTC)temp
C
wind
direction
speed
KPH
gust
KPH
rain 1hr
cm
rain 24hr
cm
rain mn
cm
humidity
%
barometer
mb
20260503021535 9 0 0.0 0.0 0.00 0.03 0.03 90 1014.8
20260503020042 9 0 0.0 0.0 0.00 0.03 0.03 89 1014.9
20260503014559 10 0 0.0 0.0 0.00 0.03 0.03 88 1014.5
20260503013044 10 0 0.0 0.0 0.00 0.03 0.03 86 1014.5
20260503011543 10 0 0.0 0.0 0.00 0.03 0.03 85 1014.4
20260503010042 10 0 0.0 0.0 0.00 0.03 0.03 83 1014.2
20260503004539 11 0 0.0 0.0 0.00 0.03 0.03 81 1014.0
20260503003040 12 0 0.0 0.0 0.00 0.03 0.03 77 1013.9
20260503001544 12 0 0.0 0.0 0.00 0.03 0.03 77 1013.7
20260503000047 13 0 0.0 0.0 0.00 0.03 0.03 71 1013.3
20260502234556 13 0 0.0 4.8 0.00 0.03 0.03 65 1013.2
20260502233040 13 61 1.6 6.4 0.00 0.03 0.03 63 1012.8
20260502231557 14 0 1.6 6.4 0.00 0.03 0.03 64 1012.9
20260502230049 13 24 1.6 8.0 0.00 0.03 0.03 65 1012.8
20260502224544 13 22 0.0 8.0 0.00 0.03 0.03 68 1012.7
20260502223037 13 0 0.0 6.4 0.00 0.03 0.03 71 1012.8
20260502221544 13 323 1.6 6.4 0.00 0.03 0.03 71 1012.7
20260502220042 13 0 0.0 0.0 0.00 0.03 0.03 76 1012.5
20260502214544 14 0 0.0 3.2 0.00 0.03 0.03 75 1012.4
20260502213042 14 0 1.6 8.0 0.00 0.03 0.03 75 1012.3
20260502211542 15 0 0.0 6.4 0.00 0.03 0.03 75 1012.4
20260502210040 15 0 0.0 4.8 0.00 0.03 0.03 75 1012.5
20260502204537 14 146 0.0 4.8 0.00 0.03 0.03 74 1012.4
20260502203035 14 0 3.2 8.0 0.00 0.03 0.03 73 1012.4
20260502201548 15 30 3.2 8.0 0.00 0.03 0.03 73 1012.5
20260502200039 15 40 0.0 8.0 0.00 0.03 0.03 73 1012.4
20260502194538 14 0 1.6 4.8 0.00 0.03 0.03 76 1012.5
20260502193049 14 163 1.6 8.0 0.00 0.03 0.03 75 1012.9
20260502191547 14 0 0.0 11.3 0.00 0.03 0.03 76 1013.0
20260502190043 15 53 1.6 11.3 0.00 0.03 0.03 77 1013.1
20260502184553 14 350 4.8 11.3 0.00 0.03 0.03 76 1013.2
20260502183037 13 38 4.8 14.5 0.00 0.03 0.03 78 1013.3
20260502181545 13 32 3.2 9.7 0.00 0.03 0.03 80 1013.5
20260502163113 12 47 3.2 11.3 0.00 0.03 0.03 87 1014.5
20260502161542 12 74 4.8 12.9 0.00 0.03 0.03 87 1014.9
20260502151545 12 51 0.0 8.0 0.03 0.03 0.03 88 1014.5
20260502123048 11 290 3.2 8.0 0.00 0.00 0.00 84 1013.8
20260502121550 11 346 0.0 8.0 0.00 0.00 0.00 85 1013.5
20260502114546 11 0 1.6 8.0 0.00 0.00 0.00 84 1013.5
20260502113044 11 352 0.0 6.4 0.00 0.00 0.00 84 1013.6
20260502111549 11 0 3.2 9.7 0.00 0.00 0.00 83 1013.6
20260502110042 11 323 1.6 14.5 0.00 0.00 0.00 82 1013.7
20260502104539 12 9 3.2 14.5 0.00 0.00 0.00 83 1013.6
20260502103059 12 343 1.6 4.8 0.00 0.00 0.00 85 1013.7
20260502101542 11 276 1.6 6.4 0.00 0.00 0.00 86 1013.8
20260502070041 11 0 0.0 0.0 0.00 0.00 0.00 90 1013.0
20260502064537 11 0 0.0 0.0 0.00 0.00 0.00 89 1012.9
20260502063047 12 0 0.0 0.0 0.00 0.00 0.00 89 1013.1
20260502061537 12 0 0.0 0.0 0.00 0.00 0.00 88 1013.2
20260502060044 12 0 0.0 0.0 0.00 0.00 0.00 88 1013.3
20260502054544 12 0 0.0 3.2 0.00 0.00 0.00 88 1013.3
20260502053039 12 0 0.0 1.6 0.00 0.00 0.00 88 1013.5
20260502051536 12 206 0.0 6.4 0.00 0.00 0.00 87 1013.6
20260502050047 12 224 0.0 4.8 0.00 0.00 0.00 87 1013.7
20260502044547 12 0 0.0 0.0 0.00 0.00 0.00 87 1013.9
20260502043040 12 0 0.0 0.0 0.00 0.00 0.00 86 1013.8
20260502041543 12 0 0.0 3.2 0.00 0.00 0.00 86 1014.0
20260502040044 12 0 0.0 1.6 0.00 0.00 0.00 85 1014.2
20260502034544 12 0 0.0 1.6 0.00 0.00 0.00 85 1014.1
20260502033043 12 0 0.0 0.0 0.00 0.00 0.00 85 1014.2
20260502031543 12 0 0.0 3.2 0.00 0.00 0.00 84 1014.1
20260502030039 12 0 0.0 9.7 0.00 0.00 0.00 84 1014.2
20260502024540 12 0 0.0 3.2 0.00 0.00 0.00 84 1014.4
20260502023037 12 0 0.0 3.2 0.00 0.00 0.00 83 1014.4